This is the latest recevied weather packets stored in our database for station/object NN5DX-13. If no packets are shown the sender has not sent any weather packets the latest 10 day(s).
| Time | Temp. | Humidity | Pressure | Rain* | Wind** | Luminosity | Snow |
|---|---|---|---|---|---|---|---|
| 1787579421 | 28.89° C | 39% | 1019.1 hPa | 0 mm | - | - | - |
| 1787579121 | 28.33° C | 41% | 1019.5 hPa | 0 mm | - | - | - |
| 1787578821 | 27.78° C | 41% | 1019.3 hPa | 0 mm | - | - | - |
| 1787578521 | 27.78° C | 42% | 1019.2 hPa | 0 mm | - | - | - |
| 1787578221 | 27.22° C | 43% | 1019.2 hPa | 0 mm | - | - | - |
| 1787577921 | 26.11° C | 45% | 1019 hPa | 0 mm | - | - | - |
| 1787577621 | 25.56° C | 46% | 1018.7 hPa | 0 mm | - | - | - |
| 1787577320 | 25.56° C | 46% | 1018.9 hPa | 0 mm | - | - | - |
| 1787577021 | 24.44° C | 48% | 1018.7 hPa | 0 mm | - | - | - |
| 1787576721 | 23.89° C | 49% | 1018.6 hPa | 0 mm | - | - | - |
| 1787576421 | 23.33° C | 49% | 1018.3 hPa | 0 mm | - | - | - |
| 1787576121 | 23.33° C | 50% | 1018.4 hPa | 0 mm | - | - | - |
| 1787575821 | 22.78° C | 50% | 1018.4 hPa | 0 mm | - | - | - |
| 1787575522 | 22.22° C | 51% | 1018.3 hPa | 0 mm | - | - | - |
| 1787575221 | 22.22° C | 51% | 1018.4 hPa | 0 mm | - | - | - |
| 1787574921 | 22.22° C | 50% | 1018.3 hPa | 0 mm | - | - | - |
| 1787574621 | 22.78° C | 49% | 1018.2 hPa | 0 mm | - | - | - |
| 1787574321 | 22.78° C | 49% | 1018.2 hPa | 0 mm | - | - | - |
| 1787574022 | 22.78° C | 49% | 1018.2 hPa | 0 mm | - | - | - |
| 1787573720 | 22.78° C | 48% | 1018.3 hPa | 0 mm | - | - | - |
| 1787573421 | 23.33° C | 48% | 1018.3 hPa | 0 mm | - | - | - |
| 1787573120 | 23.33° C | 48% | 1018.1 hPa | 0 mm | - | - | - |
| 1787572820 | 22.78° C | 49% | 1018.2 hPa | 0 mm | - | - | - |
| 1787572522 | 22.78° C | 49% | 1018.1 hPa | 0 mm | - | - | - |
| 1787572221 | 22.78° C | 49% | 1018.1 hPa | 0 mm | - | - | - |
* Rain latest hour (hover to see other rain measurements)
** Current wind speed in m/s (hover to see current wind gust speed)